Find KOSEN-1

NORAD ID: 49402 Int'l Des: 2021-102 Owner: KOCHI Country: J operational
LEOCIRCULARRETROGRADESSO

实时位置

正在加载3D地球...

关于 KOSEN-1

正在加载描述...

即将过境

Passes for default location (London). Set your location on the main map for personalized predictions.

高度历史

Loading altitude history...

两行轨道根数

1 49402U 21102H 26105.60093198 .00004289 00000-0 16923-3 0 9992
2 49402 97.3260 148.9930 0015520 72.5110 287.7823 15.25971121244473
Epoch: Apr 15, 2026 • Age: 13 hours

当前状态

高度 491.8 km
速度 7.62 km/s
星下点 10.73°N, 70.37°E
发射日期 Nov 9, 2021
运行时间 4.4 years
类型 other

技术详情

分类 Payload
质量 3.00 kg
干质量 3.00 kg
总质量 3.00 kg
长度 0.20 m
直径 0.10 m
跨度 0.20 m
形状 Box
制造商 KOCHI
平台类型 Cubesat 2U
阶段状态 In Orbit
所有者/国家 KOCHI/J

Most Searched